TimeEDT,TemperatureF,Dew PointF,Humidity,Sea Level PressureIn,VisibilityMPH,Wind Direction,Wind SpeedMPH,Gust SpeedMPH,PrecipitationIn,Events,Conditions,WindDirDegrees,DateUTC
12:56 AM,55.0,52.0,89,30.19,3.0,ESE,6.9,-,N/A,,Overcast,120,2013-10-31 04:56:00
1:21 AM,53.6,51.8,94,30.17,2.5,ESE,6.9,-,N/A,,Overcast,110,2013-10-31 05:21:00
1:56 AM,54.0,51.1,90,30.19,2.5,East,8.1,-,N/A,,Overcast,100,2013-10-31 05:56:00
2:28 AM,53.6,51.8,94,30.19,2.0,ESE,6.9,-,N/A,,Overcast,110,2013-10-31 06:28:00
2:51 AM,53.6,51.8,94,30.18,1.8,ESE,6.9,-,N/A,,Overcast,110,2013-10-31 06:51:00
2:56 AM,53.1,52.0,96,30.18,1.8,ESE,4.6,-,N/A,,Overcast,120,2013-10-31 06:56:00
3:48 AM,53.6,51.8,94,30.15,1.5,ESE,10.4,-,N/A,,Overcast,120,2013-10-31 07:48:00
3:56 AM,52.0,51.1,97,30.15,1.5,ESE,6.9,-,N/A,,Overcast,110,2013-10-31 07:56:00
4:08 AM,51.8,51.8,100,30.14,1.2,ESE,6.9,-,N/A,,Overcast,110,2013-10-31 08:08:00
4:23 AM,51.8,51.8,100,30.14,1.5,ESE,6.9,-,N/A,,Overcast,110,2013-10-31 08:23:00
4:31 AM,51.8,51.8,100,30.14,1.2,ESE,5.8,-,N/A,,Overcast,110,2013-10-31 08:31:00
4:56 AM,52.0,52.0,100,30.14,1.5,ESE,5.8,-,N/A,,Overcast,110,2013-10-31 08:56:00
5:10 AM,53.6,51.8,94,30.13,2.0,ESE,4.6,-,N/A,,Overcast,110,2013-10-31 09:10:00
5:23 AM,53.6,51.8,94,30.13,2.5,ESE,6.9,-,N/A,,Overcast,110,2013-10-31 09:23:00
5:56 AM,53.1,52.0,96,30.13,2.5,ESE,8.1,-,N/A,,Overcast,110,2013-10-31 09:56:00
6:52 AM,53.6,51.8,94,30.12,3.0,East,3.5,-,N/A,,Overcast,90,2013-10-31 10:52:00
6:56 AM,53.1,52.0,96,30.12,3.0,East,4.6,-,N/A,,Overcast,100,2013-10-31 10:56:00
7:08 AM,53.6,51.8,94,30.11,3.0,East,4.6,-,N/A,,Overcast,100,2013-10-31 11:08:00
7:56 AM,54.0,52.0,93,30.12,2.5,East,5.8,-,N/A,,Overcast,100,2013-10-31 11:56:00
8:13 AM,53.6,51.8,94,30.11,1.8,East,4.6,-,0.00,Rain,Light Rain,100,2013-10-31 12:13:00
8:56 AM,54.0,53.1,97,30.10,1.8,East,6.9,-,0.00,,Overcast,100,2013-10-31 12:56:00
9:56 AM,55.0,54.0,96,30.09,1.8,East,5.8,-,N/A,,Overcast,90,2013-10-31 13:56:00
10:24 AM,55.4,53.6,94,30.08,2.0,East,4.6,-,N/A,,Overcast,90,2013-10-31 14:24:00
10:38 AM,55.4,53.6,94,30.07,1.8,East,4.6,-,N/A,,Overcast,90,2013-10-31 14:38:00
10:56 AM,55.9,54.0,93,30.07,1.8,Calm,Calm,-,N/A,,Overcast,0,2013-10-31 14:56:00
11:16 AM,57.2,53.6,88,30.05,2.0,ESE,3.5,-,N/A,,Overcast,110,2013-10-31 15:16:00
11:56 AM,57.9,55.0,90,30.04,2.5,ESE,5.8,-,N/A,,Overcast,110,2013-10-31 15:56:00
12:38 PM,60.8,55.4,82,30.01,3.0,East,4.6,-,N/A,,Overcast,100,2013-10-31 16:38:00
12:47 PM,60.8,55.4,82,30.00,3.0,East,8.1,-,N/A,,Haze,100,2013-10-31 16:47:00
12:56 PM,60.1,55.9,86,30.00,3.0,East,8.1,-,N/A,,Overcast,100,2013-10-31 16:56:00
1:30 PM,60.8,55.4,82,29.97,4.0,East,5.8,-,N/A,,Haze,100,2013-10-31 17:30:00
1:56 PM,62.1,55.9,80,29.96,4.0,East,4.6,-,N/A,,Haze,80,2013-10-31 17:56:00
2:56 PM,63.0,57.9,84,29.94,4.0,ESE,5.8,-,0.00,Rain,Light Rain,110,2013-10-31 18:56:00
3:56 PM,63.0,57.9,84,29.90,5.0,East,4.6,-,0.00,Rain,Light Rain,100,2013-10-31 19:56:00
4:56 PM,66.0,57.0,73,29.88,9.0,South,3.5,-,0.00,,Overcast,170,2013-10-31 20:56:00
5:56 PM,64.9,57.0,75,29.87,10.0,SE,6.9,-,N/A,,Mostly Cloudy,140,2013-10-31 21:56:00
6:56 PM,66.9,57.0,70,29.86,10.0,South,9.2,-,N/A,,Mostly Cloudy,170,2013-10-31 22:56:00
7:56 PM,64.9,57.9,78,29.86,9.0,South,12.7,19.6,0.00,Rain,Light Rain,180,2013-10-31 23:56:00
8:56 PM,64.0,59.0,84,29.83,8.0,South,12.7,21.9,0.01,Rain,Light Rain,180,2013-11-01 00:56:00
9:56 PM,64.0,59.0,84,29.80,9.0,South,13.8,19.6,0.01,Rain,Light Rain,170,2013-11-01 01:56:00
10:56 PM,64.0,57.9,80,29.77,10.0,SSE,11.5,-,0.00,,Overcast,160,2013-11-01 02:56:00
11:56 PM,64.9,57.9,78,29.74,10.0,South,10.4,-,N/A,,Overcast,180,2013-11-01 03:56:00